My Little Violet — ZCPE7 — position and weather

sailwx.info

Track history (hours):
 
Tides and Currents Weather Stations Pressure Air Temp Water Temp Dewpoint Dewpoint Depression Visibility Wind Speed Wind Dir Waves Ship Positions

My Little Violet

Last reported at 2016-Jul-30 05:27 UTC. Time now 2016-Sep-30 18:37 UTC.
Position N 35°29' E 018°19'.
Warning: this ship's position is months out of date.

Length 45 m; draft 2.9 m.

Type: Pleasure craft. MMSI: 319496000.

Date/timePositionNaut miles runAvg speedWind from/ knotsBaromVisibWave heightAir tempDewpointWater temp
2016-Jul-30 05:27N 35°29' E 018°19'1211.8
2016-Jul-30 04:26N 35°31' E 018°05'1512.0
2016-Jul-30 03:12N 35°33' E 017°47'911.9
2016-Jul-30 02:27N 35°34' E 017°36'1112.0
2016-Jul-30 01:33N 35°35' E 017°23'1212.1
2016-Jul-30 00:33N 35°37' E 017°08'1312.6
2016-Jul-29 23:30N 35°40' E 016°52'3712.6
2016-Jul-29 20:33N 35°46' E 016°06'1212.4
2016-Jul-29 19:33N 35°48' E 015°52'1212.4
2016-Jul-29 18:33N 35°50' E 015°36'1212.3
2016-Jul-29 17:33N 35°50' E 015°21'1212.2
2016-Jul-29 16:33N 35°52' E 015°06'1211.9
2016-Jul-29 15:33N 35°53' E 014°52'17 4.2
2016-Jul-29 11:29N 35°53' E 014°31'0 0.0
2016-Jul-28 23:08N 35°53' E 014°31'0 0.0
2016-Jul-28 17:32N 35°53' E 014°31'0 0.0
2016-Jul-28 16:26N 35°53' E 014°31'4 1.4
2016-Jul-28 13:33N 35°56' E 014°34'1313.1
2016-Jul-28 12:33N 36°07' E 014°44'1313.3
2016-Jul-28 11:34N 36°18' E 014°52'1313.2
2016-Jul-28 10:33N 36°29' E 015°01'4113.7
2016-Jul-28 07:33N 37°06' E 015°25'1413.9
2016-Jul-28 06:33N 37°19' E 015°28'1514.1
2016-Jul-28 05:28N 37°35' E 015°29'1314.4
2016-Jul-28 04:33N 37°48' E 015°31'1414.4
2016-Jul-28 03:34N 38°02' E 015°34'1413.9
2016-Jul-28 02:34N 38°15' E 015°39'1010.3
2016-Jul-28 01:33N 38°21' E 015°27'1514.6
2016-Jul-28 00:34N 38°21' E 015°09'1414.0
2016-Jul-27 23:33N 38°22' E 014°51'5713.8
2016-Jul-27 19:25N 38°41' E 013°42'1214.1
2016-Jul-27 18:34N 38°45' E 013°28'1413.7
2016-Jul-27 17:33N 38°51' E 013°12'6913.8
2016-Jul-27 12:33N 39°18' E 011°50'1414.1
2016-Jul-27 11:34N 39°23' E 011°33'26512.4
2016-Jul-26 14:07N 42°21' E 007°13'813.0
2016-Jul-26 13:32N 42°26' E 007°05'2812.8
2016-Jul-26 11:21N 42°42' E 006°34'  
Track history (hours):
 
Tides and Currents Weather Stations Pressure Air Temp Water Temp Dewpoint Dewpoint Depression Visibility Wind Speed Wind Dir Waves Ship Positions

My Little Violet

Last reported at 2016-Jul-30 05:27 UTC. Time now 2016-Sep-30 18:37 UTC.
Position N 35°29' E 018°19'.
Warning: this ship's position is months out of date.

Length 45 m; draft 2.9 m.

Type: Pleasure craft. MMSI: 319496000.

Date/timePositionNaut miles runAvg speedWind from/ knotsBaromVisibWave heightAir tempDewpointWater temp
2016-Jul-30 05:27N 35°29' E 018°19'1211.8
2016-Jul-30 04:26N 35°31' E 018°05'1512.0
2016-Jul-30 03:12N 35°33' E 017°47'911.9
2016-Jul-30 02:27N 35°34' E 017°36'1112.0
2016-Jul-30 01:33N 35°35' E 017°23'1212.1
2016-Jul-30 00:33N 35°37' E 017°08'1312.6
2016-Jul-29 23:30N 35°40' E 016°52'3712.6
2016-Jul-29 20:33N 35°46' E 016°06'1212.4
2016-Jul-29 19:33N 35°48' E 015°52'1212.4
2016-Jul-29 18:33N 35°50' E 015°36'1212.3
2016-Jul-29 17:33N 35°50' E 015°21'1212.2
2016-Jul-29 16:33N 35°52' E 015°06'1211.9
2016-Jul-29 15:33N 35°53' E 014°52'17 4.2
2016-Jul-29 11:29N 35°53' E 014°31'0 0.0
2016-Jul-28 23:08N 35°53' E 014°31'0 0.0
2016-Jul-28 17:32N 35°53' E 014°31'0 0.0
2016-Jul-28 16:26N 35°53' E 014°31'4 1.4
2016-Jul-28 13:33N 35°56' E 014°34'1313.1
2016-Jul-28 12:33N 36°07' E 014°44'1313.3
2016-Jul-28 11:34N 36°18' E 014°52'1313.2
2016-Jul-28 10:33N 36°29' E 015°01'4113.7
2016-Jul-28 07:33N 37°06' E 015°25'1413.9
2016-Jul-28 06:33N 37°19' E 015°28'1514.1
2016-Jul-28 05:28N 37°35' E 015°29'1314.4
2016-Jul-28 04:33N 37°48' E 015°31'1414.4
2016-Jul-28 03:34N 38°02' E 015°34'1413.9
2016-Jul-28 02:34N 38°15' E 015°39'1010.3
2016-Jul-28 01:33N 38°21' E 015°27'1514.6
2016-Jul-28 00:34N 38°21' E 015°09'1414.0
2016-Jul-27 23:33N 38°22' E 014°51'5713.8
2016-Jul-27 19:25N 38°41' E 013°42'1214.1
2016-Jul-27 18:34N 38°45' E 013°28'1413.7
2016-Jul-27 17:33N 38°51' E 013°12'6913.8
2016-Jul-27 12:33N 39°18' E 011°50'1414.1
2016-Jul-27 11:34N 39°23' E 011°33'26512.4
2016-Jul-26 14:07N 42°21' E 007°13'813.0
2016-Jul-26 13:32N 42°26' E 007°05'2812.8
2016-Jul-26 11:21N 42°42' E 006°34'  

Dump ship's entire track history